Dewpoint
63 64 62 61 62 61 61 61 62 61 61 62 61 61 61 60 60 61 60 61 61 62 61 59 59 60 57 59 57 60 60 62 63 62 61 62 63 63 61 60 60 62 61 61 61 62 61 61 61 61 61 60 60 60 59 57 57 57 55 55 54 50 47 45 41 42 44 53 39 35 39 41 37 36 35 35 38 43 45 44 45 41 36 39 37
62 63 63 62 61 60 61 61 60 60 61 61 60 60 60 61 61 59 60 59 58 56 58 62 61 60 57 56 60 57 58 59 61 62 59 61 63 62 62 61 61 62 62 60 61 62 62 61 60 61 60 60 60 57 57 54 53 51 49 50 48 50 50 42 41 43 42 47 43 36 40 39 37 36 38 38 39 41 39 45 43 39 36 39 36
62 62 62 61 60 60 60 58 58 60 61 61 60 58 60 60 59 60 59 60 61 59 58 60 59 58 57 58 55 58 59 59 62 62 61 59 59 60 62 61 61 59 60 59 59 61 61 62 61 61 62 61 59 58 55 52 50 47 46 44 43 45 41 42 42 44 45 46 50 37 37 38 40 35 38 39 41 40 37 41 42 39 37 39 38
62 62 62 61 59 59 59 58 58 59 60 60 60 60 60 59 59 58 56 59 56 60 56 54 58 59 57 56 56 58 58 59 59 57 56 58 58 58 58 59 58 58 57 55 58 60 60 60 60 62 61 60 58 56 55 53 53 51 46 48 44 43 50 51 43 45 46 44 43 37 37 40 40 36 37 41 41 39 35 36 42 40 39 39 38
61 61 60 61 62 60 59 59 58 59 59 60 60 61 60 59 59 56 58 58 57 57 57 55 57 55 59 55 54 56 57 58 58 57 58 59 58 57 57 57 58 57 57 56 59 58 59 60 59 60 61 60 57 58 53 52 49 49 46 42 40 44 53 49 46 46 45 45 46 45 40 39 37 37 35 39 40 39 38 36 36 38 39 39 37
60 60 61 61 60 59 60 59 59 59 59 60 60 60 59 58 58 58 55 56 56 58 56 54 50 50 52 51 52 52 53 55 54 55 57 58 58 59 58 57 57 56 56 56 55 57 57 58 61 61 60 61 61 59 57 52 50 52 42 43 39 40 52 50 50 50 45 45 45 45 46 38 38 38 38 38 39 39 38 38 36 36 38 40 40
60 59 61 60 60 60 58 59 59 60 60 60 60 59 58 59 57 56 57 55 57 59 57 57 58 50 51 55 52 52 51 51 52 56 57 57 56 57 57 58 56 58 56 57 52 54 54 56 58 59 60 60 61 60 59 59 57 54 50 53 41 43 49 47 43 45 49 50 44 44 48 43 45 44 39 39 39 39 41 42 41 38 42 43 45
60 59 60 60 60 61 59 59 59 59 60 60 59 58 58 58 58 57 56 55 56 56 56 57 57 55 54 54 55 52 49 48 48 49 50 55 58 56 56 58 56 55 57 53 55 55 56 55 56 58 60 61 61 60 59 58 59 55 56 55 54 50 49 51 49 49 48 47 47 48 47 49 46 48 40 40 39 38 39 43 42 42 45 47 44
60 61 61 62 61 61 61 60 59 59 58 59 59 59 58 58 58 56 56 57 57 53 56 54 56 52 54 55 53 53 52 49 46 45 48 50 54 58 58 55 57 56 53 53 53 55 54 51 50 50 52 50 48 48 48 51 56 56 54 55 56 58 57 55 51 49 50 50 49 49 49 48 48 47 44 44 46 46 50 45 45 47 47 48 46
60 60 58 59 60 59 61 59 59 58 58 58 57 58 57 57 56 54 53 53 54 54 54 56 52 53 55 52 52 52 49 47 43 41 43 48 55 55 59 57 56 56 56 56 54 56 52 50 51 52 50 48 46 43 42 44 48 50 50 51 52 53 54 54 52 51 51 49 49 49 48 48 48 50 49 50 48 49 47 50 49 48 48 47 48
60 59 59 59 59 59 59 59 60 59 57 57 57 56 54 56 52 52 53 53 55 54 54 52 52 54 53 52 50 48 44 41 39 38 40 41 51 56 58 57 57 57 55 55 56 55 53 50 51 51 50 51 46 43 42 41 41 42 43 46 51 52 50 51 51 52 52 51 50 49 48 48 49 50 48 49 51 46 47 48 49 48 46 45 44
59 59 59 60 60 60 60 59 60 59 58 56 56 58 58 57 56 55 56 55 55 56 56 54 53 53 52 50 48 46 43 39 37 38 38 38 42 52 56 56 58 57 53 55 53 53 52 54 53 55 56 54 51 48 46 42 41 41 41 41 41 43 47 50 50 49 52 49 50 51 51 49 49 49 48 46 49 50 49 46 45 45 45 45 46
54 53 53 57 59 60 60 59 57 57 56 56 57 57 57 57 57 57 57 58 57 56 55 53 51 50 49 46 44 42 40 37 36 37 37 37 37 45 53 55 57 55 54 54 52 54 56 56 55 54 49 56 54 60 54 50 43 42 43 43 41 40 41 43 46 51 53 51 50 51 52 54 53 52 55 54 54 50 49 49 49 49 48 47 47
52 52 52 52 53 55 57 56 55 54 54 55 55 55 55 56 57 57 56 56 55 54 53 52 50 49 47 43 41 40 39 38 36 36 36 36 37 40 54 57 55 55 55 54 56 56 56 55 55 56 54 50 49 51 57 57 56 55 55 54 52 53 43 40 40 42 48 52 52 49 52 52 53 53 55 57 55 54 53 51 51 51 51 51 51
49 50 50 51 52 52 52 52 51 51 52 52 52 52 53 54 54 55 55 54 53 52 51 50 49 47 45 43 41 40 39 36 35 35 35 35 36 42 56 57 58 57 56 57 56 58 56 57 57 56 51 47 44 44 50 55 57 57 56 56 56 57 56 56 53 50 49 50 51 51 52 54 54 55 57 59 58 56 55 54 54 54 55 54 53
46 47 47 49 50 50 50 50 50 49 49 49 49 49 50 50 51 53 53 53 52 51 50 49 48 46 45 43 41 38 38 35 35 35 35 35 38 51 57 57 56 56 58 57 57 57 56 57 57 51 47 43 39 38 41 51 57 56 56 56 56 56 56 51 47 49 55 57 56 56 57 54 50 52 51 50 53 57 59 57 56 54 53 51 51
44 45 46 47 48 49 50 49 49 50 50 49 48 49 49 49 49 49 49 49 49 49 50 51 49 47 44 42 40 38 37 36 35 35 35 35 39 48 51 55 54 56 56 57 54 52 53 55 54 48 43 40 38 36 38 44 51 51 53 54 55 56 56 58 52 49 47 46 45 45 44 43 41 40 40 41 46 49 52 54 54 54 52 50 50
44 44 45 46 46 47 47 47 47 47 48 48 49 49 50 51 50 49 47 46 45 46 45 45 45 47 46 44 42 41 39 37 35 35 35 35 38 45 47 50 53 53 56 54 49 46 46 49 49 44 41 39 36 36 37 42 44 45 45 45 48 50 53 49 51 51 47 48 49 47 45 45 44 43 42 41 41 43 50 50 51 52 51 51 51
43 44 44 45 46 46 47 47 47 47 47 47 48 48 48 49 50 49 47 45 45 43 43 43 45 45 46 46 48 44 40 38 35 35 35 35 39 46 45 42 42 43 42 43 48 45 41 41 42 41 39 37 36 36 36 40 40 42 43 43 43 44 48 44 43 42 43 44 45 49 52 51 51 52 52 46 43 44 48 50 51 52 50 51 52
44 44 45 45 46 46 47 46 46 46 46 47 48 48 48 49 49 50 50 50 47 47 45 45 45 45 45 45 46 46 41 37 37 35 35 35 38 44 40 37 37 39 40 39 43 47 44 41 39 35 35 35 35 35 36 37 40 43 43 42 42 43 43 39 40 41 41 41 40 41 42 45 52 55 56 54 52 50 48 49 50 50 49 49 49
44 44 45 45 45 45 46 46 47 47 47 47 48 48 49 49 49 49 49 49 48 47 47 47 46 46 47 45 43 44 43 38 38 35 35 35 36 39 37 37 37 39 39 40 40 44 46 42 39 36 35 35 35 35 36 36 37 42 42 41 41 42 39 39 41 41 40 41 41 40 40 40 43 48 53 54 54 54 52 49 50 50 50 49 48
45 44 44 44 44 45 46 46 46 47 47 47 47 47 49 50 50 50 50 49 47 46 46 45 43 44 45 44 42 41 41 41 38 36 35 36 36 37 38 39 39 42 39 38 38 39 40 43 40 37 35 35 35 35 36 36 36 41 41 37 37 36 40 41 41 42 41 40 38 38 38 37 37 39 43 48 52 53 54 53 51 50 51 50 49
44 44 45 44 44 44 45 45 46 47 47 47 46 46 47 48 48 50 49 49 48 47 47 45 45 43 43 43 42 40 41 40 38 37 35 35 36 36 36 37 36 45 45 42 43 38 41 41 40 38 36 36 36 36 36 36 37 39 36 36 35 35 37 40 40 40 40 39 39 38 38 38 38 36 36 36 38 42 49 53 53 53 52 52 53
41 42 43 44 44 45 46 45 45 45 46 47 47 47 47 47 47 44 47 45 45 44 43 45 45 44 43 43 45 42 40 39 38 37 37 35 35 35 35 35 35 39 41 42 43 47 41 39 40 36 36 36 36 36 35 36 37 36 35 35 35 36 39 40 40 40 38 37 37 36 36 35 35 35 34 36 36 37 39 42 49 53 53 52 52
38 37 37 38 39 39 41 45 45 45 45 46 45 45 44 45 46 42 41 41 41 38 37 37 38 39 41 42 42 42 41 40 39 39 36 36 35 35 35 35 35 35 41 41 41 40 37 36 36 36 36 36 36 36 37 38 37 36 35 35 38 39 40 41 41 42 41 41 39 39 39 39 40 41 42 42 42 41 41 43 43 46 51 50 47
39 36 35 35 36 35 38 38 39 41 41 41 42 44 39 39 39 39 39 39 38 38 36 36 36 38 40 39 39 38 42 41 41 41 40 39 38 36 36 35 36 36 37 38 36 36 36 36 36 36 37 37 40 40 40 40 38 37 37 38 41 42 42 42 42 42 42 42 41 41 41 42 42 41 41 42 42 42 43 43 44 44 49 45 47
37 38 39 37 38 37 38 37 37 36 36 36 38 39 39 36 35 35 35 36 38 39 37 37 37 38 40 40 40 40 38 37 37 38 38 38 38 38 39 42 40 37 40 41 38 39 39 39 38 37 36 36 36 36 36 37 37 38 39 41 42 42 43 44 44 44 43 43 40 39 39 39 40 41 42 42 42 42 42 41 42 45 46 45 45
34 34 35 36 36 37 38 34 35 35 35 34 34 36 38 36 34 35 34 35 36 37 38 37 37 38 38 37 38 37 36 36 36 36 36 36 37 37 38 39 39 39 39 38 38 39 39 38 39 40 42 42 42 41 42 43 40 39 41 37 37 39 42 42 42 43 44 40 37 38 38 38 38 40 40 40 40 40 41 42 42 43 45 43 41
35 32 33 34 37 36 37 36 37 35 34 34 34 35 37 38 37 37 37 36 36 37 36 36 36 38 38 37 37 37 36 36 36 34 35 34 34 36 36 37 36 37 37 34 35 38 39 39 39 39 39 35 35 36 36 36 35 37 39 38 37 37 38 37 37 36 37 36 37 37 37 38 38 39 40 40 40 40 41 42 41 42 44 42 41
37 34 33 33 34 36 36 36 35 36 36 34 33 36 34 35 36 36 35 35 35 34 35 35 37 38 38 37 38 36 36 36 34 35 35 35 35 35 35 35 34 34 34 34 33 35 35 36 37 35 35 35 34 34 34 35 35 35 35 35 36 37 37 37 37 37 36 35 36 36 36 35 36 38 38 39 40 41 40 39 40 41 41 40 38
34 35 35 34 34 36 38 36 38 36 37 37 36 34 35 35 34 34 35 35 35 34 34 34 34 34 38 37 36 35 34 34 34 35 35 35 35 35 34 34 34 34 34 34 33 34 33 33 34 34 35 36 34 35 34 35 34 35 35 36 37 36 35 36 38 36 35 34 34 35 35 35 36 36 36 37 38 39 39 38 39 40 40 41 40
34 32 31 33 38 36 38 34 36 38 39 39 35 36 35 36 35 35 34 35 35 35 34 34 34 34 34 36 37 38 35 35 35 35 35 35 35 34 34 34 34 34 34 32 32 33 33 33 33 34 34 34 34 34 35 35 35 35 35 35 35 35 36 36 37 37 35 35 34 34 34 34 35 35 35 35 35 36 37 35 36 37 37 38 39
34 31 30 32 33 32 31 34 39 37 37 34 35 34 36 35 34 34 35 34 34 34 34 35 34 34 34 34 35 34 34 34 35 35 35 35 35 34 34 34 34 34 33 33 33 33 33 33 34 35 35 34 36 36 36 37 36 36 37 36 36 37 38 37 35 35 34 34 34 34 34 34 34 33 33 34 34 35 35 35 36 36 37 36 35
35 35 35 36 34 34 34 36 33 34 35 35 35 36 32 37 36 36 35 34 35 35 34 34 34 34 34 35 35 34 34 34 35 35 35 34 34 34 34 34 35 34 35 35 35 34 35 35 35 36 37 36 36 35 35 36 36 36 35 37 38 38 37 35 35 34 33 33 33 33 33 33 33 33 33 33 34 34 35 34 35 35 35 35 34
35 31 31 35 36 35 36 33 31 32 33 34 32 31 35 38 38 34 36 35 36 36 34 35 35 34 37 34 34 34 34 34 34 35 35 34 34 34 35 38 34 34 35 37 40 36 36 36 36 36 36 36 36 36 36 38 37 36 36 36 36 36 34 34 33 33 33 33 33 33 33 33 33 33 33 33 34 34 34 34 34 34 34 34 34
36 38 35 42 39 35 34 34 31 32 33 33 34 34 35 36 30 32 31 31 34 36 35 35 35 34 34 34 34 34 34 34 34 34 34 34 34 34 33 33 33 34 34 35 35 35 36 35 35 36 36 36 37 36 36 36 37 36 36 35 34 33 33 33 33 33 32 33 33 33 33 32 33 33 33 33 33 32 32 32 32 32 33 33 33
36 36 34 32 30 32 34 39 33 34 32 32 33 35 33 35 31 31 33 32 31 32 36 35 35 35 34 37 36 34 34 34 34 34 34 34 34 35 35 35 35 34 34 35 35 35 35 35 35 35 35 35 35 35 35 36 36 35 35 34 34 33 33 33 33 33 32 32 33 33 33 33 33 33 32 32 32 32 32 32 32 32 32 32 32
37 33 32 31 31 34 33 33 34 31 34 35 38 32 31 31 33 34 31 29 30 32 33 33 32 33 32 33 37 35 34 34 34 35 34 34 33 34 34 34 34 34 34 35 35 35 35 34 34 35 34 35 35 35 34 34 34 34 33 34 33 33 33 33 33 33 33 33 33 33 33 33 33 33 32 32 32 32 32 32 32 32 32 32 32
38 32 31 31 29 32 31 30 31 33 35 37 35 33 31 31 31 31 31 32 32 32 32 34 33 33 32 33 34 35 35 32 31 32 32 32 33 34 34 34 35 34 35 35 35 35 35 34 34 34 34 35 34 34 34 34 34 34 34 33 33 33 32 32 33 32 32 32 33 33 33 33 33 33 33 32 32 32 32 32 32 32 32 32 32
37 36 33 29 31 29 29 32 32 33 32 33 33 34 35 31 31 31 31 31 32 31 32 32 33 33 33 33 33 33 33 32 31 32 32 32 33 34 34 33 34 34 34 34 35 34 34 33 34 34 34 34 35 34 34 34 33 34 33 32 32 32 32 32 31 31 31 32 32 32 33 33 33 33 33 32 32 32 32 32 32 32 32 32 32
41 39 32 31 31 31 29 31 36 33 35 31 34 32 32 31 31 31 31 32 31 32 34 33 33 33 33 33 33 33 33 33 32 32 33 33 33 33 34 34 34 34 34 34 34 34 34 34 34 34 34 34 34 34 34 34 34 33 33 33 33 32 32 31 30 30 30 31 30 30 31 31 32 33 32 32 33 33 32 32 32 32 32 32 32
37 38 37 33 34 33 32 30 32 31 36 36 34 33 35 32 32 31 31 31 30 31 32 33 33 33 33 33 33 33 34 33 33 33 34 34 33 33 33 34 34 35 34 34 34 33 33 33 33 33 33 34 33 33 33 33 33 32 32 32 32 32 32 31 31 30 30 30 30 30 30 31 31 32 31 33 32 33 33 33 32 32 32 32 32
37 36 36 34 32 34 30 32 32 33 33 33 32 30 31 32 32 33 32 31 31 32 32 32 34 33 33 32 33 32 35 33 33 34 33 33 34 33 34 33 34 35 34 34 34 34 33 33 33 33 33 34 35 34 34 34 33 32 32 31 31 30 30 29 28 28 28 30 30 30 30 30 30 30 30 31 31 31 32 32 32 33 32 33 32
36 35 35 33 31 30 33 33 30 33 33 32 32 31 31 32 32 33 33 33 33 33 32 31 31 32 33 33 34 34 33 34 33 33 34 33 34 33 33 33 34 34 34 33 34 34 33 33 32 33 34 34 35 36 34 34 33 32 32 31 31 31 30 30 29 29 29 29 30 31 30 29 30 30 31 30 30 30 31 31 32 32 32 32 32
41 35 36 33 31 30 28 31 32 33 32 30 33 32 32 32 32 32 32 34 33 32 31 32 32 32 32 32 33 33 34 33 33 33 33 33 32 33 33 32 32 33 32 32 32 33 32 32 32 32 32 33 33 34 34 34 34 33 32 32 32 31 31 31 30 29 29 29 29 29 28 28 29 29 30 31 31 31 32 32 31 30 29 29 30
39 35 35 32 30 29 33 30 30 32 32 33 33 34 34 34 33 33 34 33 32 31 32 31 31 32 32 32 33 32 33 33 33 33 33 32 32 31 31 30 30 31 30 30 30 31 30 30 30 30 31 31 32 33 33 33 34 34 34 33 32 31 31 31 32 30 28 27 27 28 29 29 29 29 29 29 28 28 28 28 28 28 28 28 28
40 36 34 32 29 28 29 34 30 31 32 32 33 33 36 36 36 35 32 32 32 31 32 32 32 32 32 32 33 33 33 32 32 32 32 33 32 31 30 29 29 28 29 28 28 29 29 29 29 29 29 30 31 33 33 32 32 32 32 31 31 31 31 31 31 31 30 31 30 28 28 29 29 29 29 29 29 29 29 29 28 28 28 28 28
36 36 36 34 30 29 27 33 31 30 32 31 32 32 31 33 34 34 35 32 31 32 32 32 32 32 32 32 32 32 33 33 32 32 32 31 31 29 29 28 28 27 27 27 27 26 26 26 27 27 28 29 29 29 31 31 31 31 31 30 31 31 30 30 31 31 31 32 32 29 28 29 28 28 29 29 29 29 29 28 29 28 27 27 28
34 39 33 33 30 29 27 32 32 29 31 32 31 31 31 32 33 33 34 35 34 34 35 34 32 32 32 34 33 32 31 31 32 32 31 31 30 29 28 28 28 27 26 25 25 25 27 26 26 27 27 28 29 30 30 30 30 31 29 30 30 30 30 29 30 31 31 31 31 30 30 29 29 28 30 30 30 29 29 29 29 29 29 28 27
30 31 31 31 32 29 28 28 31 31 32 31 32 32 33 34 33 33 34 34 34 35 35 35 33 33 32 32 31 33 34 31 31 30 30 30 29 29 29 27 27 27 26 25 25 25 25 25 26 27 28 28 30 31 30 30 30 30 28 29 29 29 29 29 29 29 30 31 31 31 29 28 28 28 29 29 29 28 28 29 28 29 29 27 27
28 28 29 33 35 31 29 27 31 30 31 31 31 32 31 32 33 32 32 33 35 35 34 35 34 34 33 34 32 32 30 32 32 31 32 29 29 30 30 28 28 27 27 26 26 26 26 26 26 27 28 29 29 30 29 28 28 29 28 28 28 28 28 28 29 29 29 29 30 31 29 29 28 28 27 27 28 28 29 29 28 29 29 28 26